HAWK-6A

Last updated on Sun Jun 21 2026 00:03:43 GMT+0000 (Coordinated Universal Time)

1 55327U 23011D 26170.87108723 .00003931 00000+0 17202-3 0 9991 2 55327 40.5001 334.8809 0002469 2.7787 357.3036 15.22952483188264
UTC large
Height (km)
Speed (km/s)
/
Latitude / Longitude
Inclination (degrees)
Orbital Period (minutes)
Azimuth
Elevation
Range (km)
Doppler Factor

Next 0 passes for location: London (51.5072 / 0.1276)

No passes found over London.
HAWK-6A